Location: Fort Wayne
(41.1310°N, 85.1290°W)
Time: 20:58:10
(UTC-04:00)

Cosmos 2219 Rocket - Visible Passes

Search period start: 30 June 2016 00:00
Search period end: 10 July 2016 00:00
Orbit: 830 x 845 km, 71.0° (Epoch: 30 June)

Date Brightness Start Highest point End Pass type
(mag) Time Alt. Az. Time Alt. Az. Time Alt. Az.
30 Jun 2.2 23:10:07 10° NNW 23:15:43 75° WSW 23:18:54 26° SSE visible
01 Jul 2.2 22:53:46 10° NNW 22:59:24 81° WSW 23:03:06 22° SSE visible
02 Jul 2.2 22:37:26 10° NNW 22:43:03 87° WSW 22:47:22 18° SSE visible
03 Jul 4.6 00:24:57 10° W 00:26:05 11° W 00:27:12 10° WSW visible
03 Jul 2.2 22:21:06 10° NNW 22:26:44 87° ENE 22:31:39 14° SSE visible
04 Jul 4.6 00:07:55 10° WNW 00:09:49 12° W 00:11:44 10° WSW visible
04 Jul 2.2 22:04:46 10° NNW 22:10:24 81° ENE 22:15:59 10° SSE visible
04 Jul 4.5 23:51:07 10° WNW 23:53:32 13° W 23:55:58 10° WSW visible
05 Jul 2.2 21:48:26 10° NNW 21:54:03 76° ENE 21:59:40 10° SSE visible
05 Jul 4.5 23:34:25 10° WNW 23:37:16 14° W 23:40:06 10° SW visible
06 Jul 4.5 23:17:48 10° WNW 23:20:59 16° W 23:24:10 10° SW visible
07 Jul 4.5 23:01:14 10° WNW 23:04:42 17° W 23:08:11 10° SW visible
08 Jul 4.5 22:44:41 10° WNW 22:48:25 18° W 22:52:09 10° SW visible
09 Jul 4.4 22:28:10 10° NW 22:32:08 20° W 22:36:06 10° SW visible
